RH
28 30 36 32 23 14 14 10 8 7 6 6 8 6 4 12 20 25 27 44 51 67 56 29 52 59 65 75 80 68 36 98 100 100 98 79 76 49 20 22 35 78 96 98 99 92 79
33 37 37 36 19 16 15 11 8 7 6 6 8 7 4 11 19 24 27 42 60 76 73 29 42 54 82 87 69 80 41 70 100 100 100 99 62 63 26 23 18 37 94 100 98 100 99
38 41 38 37 21 18 17 12 10 6 6 5 6 7 4 9 17 23 27 44 68 82 86 36 42 54 74 92 90 87 50 45 99 100 100 100 91 60 43 23 21 23 73 88 94 97 96
43 40 39 39 25 22 18 13 9 8 6 5 6 7 4 8 15 21 29 44 70 89 94 50 40 73 87 97 100 98 84 100 100 100 100 100 100 75 55 30 25 22 52 80 92 95 99
49 40 40 40 33 26 22 14 9 9 6 5 6 7 3 5 12 19 24 40 69 96 91 69 38 67 82 97 85 99 100 49 84 100 100 100 100 95 70 42 32 33 48 61 95 95 99
55 43 39 39 38 28 23 15 12 9 6 5 6 6 4 4 12 16 22 37 68 98 92 78 39 58 69 89 100 100 96 68 75 100 100 100 99 82 79 47 36 26 15 45 77 78 95
65 64 61 44 42 36 25 19 13 9 6 6 6 6 4 3 12 16 20 34 65 93 93 94 39 57 80 74 100 98 82 100 100 98 100 99 86 66 77 49 36 30 23 52 64 81 96
62 66 65 60 51 34 27 20 12 10 6 6 6 5 4 4 10 18 20 37 60 78 91 100 42 55 89 84 92 84 100 100 98 86 96 100 74 96 89 45 33 29 32 32 51 69 78
49 54 60 64 54 32 25 17 12 9 7 6 5 4 4 4 8 15 21 38 54 77 91 100 46 45 70 85 74 99 100 100 99 98 93 99 87 100 99 58 28 25 35 40 48 63 89
52 53 62 65 50 33 24 16 13 10 9 6 5 4 5 3 11 14 20 36 54 66 92 100 51 47 61 66 87 65 96 100 100 97 100 100 100 100 100 90 60 26 27 40 45 50 53
57 62 65 61 47 24 20 15 13 11 10 7 5 4 7 4 7 15 27 40 61 63 99 98 58 82 51 54 70 62 90 100 89 84 98 94 98 98 93 98 92 61 25 35 40 42 45
58 63 66 54 44 33 21 16 15 13 12 9 5 5 7 4 7 13 28 43 58 66 96 85 60 92 90 50 58 92 100 99 99 100 100 98 99 100 100 93 94 57 29 31 39 46 43
61 65 62 55 36 27 19 17 19 18 16 10 6 5 6 5 4 16 22 43 62 64 81 80 66 79 69 73 47 96 100 100 100 100 100 100 98 94 99 96 94 46 31 28 31 36 33
67 62 62 53 37 28 19 19 20 17 15 11 8 6 6 5 4 20 22 38 60 66 89 100 57 87 95 60 36 57 100 100 100 100 97 96 98 96 93 94 71 44 21 20 20 20 25
66 66 66 53 38 31 21 20 21 17 16 14 9 6 6 5 4 21 24 32 57 74 68 100 47 90 63 59 49 52 94 100 100 100 99 88 91 78 80 86 67 35 23 20 18 15 17
70 73 70 52 38 32 24 24 21 20 19 18 11 5 5 5 4 10 32 27 46 88 64 88 83 68 77 70 58 57 72 93 100 93 90 86 81 78 83 81 62 46 38 29 22 13 11
78 79 67 52 42 29 23 25 21 21 24 20 12 5 4 5 4 7 31 26 37 78 94 61 100 34 46 55 62 64 46 89 100 84 74 83 83 79 88 81 72 59 47 40 33 19 12
78 82 64 48 35 25 22 25 23 24 25 24 12 5 4 4 4 6 27 32 32 40 56 80 74 100 43 49 60 64 68 100 99 91 93 88 93 84 65 61 60 55 47 41 38 30 27
77 81 64 51 36 28 24 26 25 23 24 28 14 5 4 4 4 6 20 35 36 42 38 56 59 91 100 58 48 60 61 96 97 92 83 73 73 80 66 64 58 56 70 63 56 49 41
74 78 64 50 42 33 26 28 28 28 26 29 16 5 4 3 4 9 14 39 36 45 41 40 46 42 87 94 60 74 73 73 80 70 72 64 71 77 87 76 79 68 72 70 61 45 47
80 80 71 54 45 36 32 33 30 28 27 28 20 6 4 3 4 11 14 41 34 36 42 44 44 40 52 65 96 82 58 51 54 60 52 69 83 84 87 80 72 65 60 53 41 46 47
92 83 75 56 49 36 38 37 33 31 30 29 21 8 4 3 3 13 22 22 45 33 29 37 44 42 44 56 60 62 81 90 80 60 54 54 52 52 54 56 56 63 89 87 78 73 51
95 86 74 60 53 43 40 37 37 34 28 27 17 11 6 3 3 8 24 23 37 40 33 33 40 40 36 42 55 66 67 64 62 77 94 98 98 99 99 91 90 99 98 88 90 96 91
96 89 78 67 60 51 44 45 53 44 38 29 22 14 8 4 3 5 12 30 16 48 34 33 38 38 36 36 48 69 74 74 74 68 63 63 68 74 82 80 84 90 91 88 88 95 88
97 94 79 75 65 69 62 62 56 53 40 30 23 14 9 4 3 5 11 27 24 27 47 33 38 38 40 44 53 58 61 69 79 82 84 83 80 75 72 80 74 66 62 60 64 63 59
96 91 84 78 74 75 72 69 66 52 41 27 20 14 8 4 3 4 8 21 31 23 44 45 39 36 38 59 63 60 58 59 65 78 85 83 83 82 81 82 60 56 42 38 42 49 53
96 96 85 82 84 89 79 77 79 62 42 28 20 14 8 5 3 3 6 17 27 39 21 60 48 53 52 64 72 66 66 63 67 81 94 98 95 81 66 60 67 42 39 54 62 58 61
96 97 88 79 83 88 88 96 86 74 50 30 19 13 9 6 4 3 4 14 23 38 42 48 75 62 68 68 80 80 72 74 72 67 76 92 94 85 75 65 55 41 40 66 68 61 60
97 94 92 91 91 88 99 96 87 82 71 31 18 13 9 7 5 4 4 11 20 26 55 46 75 80 66 82 93 92 77 64 54 48 44 42 48 81 90 89 82 74 57 51 54 58 60
Wind_Speed
31 31 33 36 38 40 44 50 58 64 71 77 82 79 52 37 38 44 50 53 54 54 50 23 9 12 18 24 28 49 60 58 43 63 69 61 54 57 55 53 57 51 50 37 42 47 53
30 27 31 37 36 40 44 49 58 63 70 77 80 81 58 36 34 40 47 51 52 52 50 25 11 12 12 17 31 38 61 58 42 46 72 48 57 53 55 53 51 51 53 52 38 48 46
28 25 29 35 37 40 44 47 56 63 68 74 81 81 57 35 31 37 44 49 49 50 48 28 15 10 11 11 23 36 55 55 54 47 61 49 54 53 55 53 51 47 47 53 45 44 47
27 23 29 36 39 42 45 46 54 62 67 72 80 82 56 36 29 34 42 46 48 46 47 33 14 10 5 11 16 25 52 49 43 51 51 53 47 55 53 53 49 48 40 46 59 41 37
27 26 30 36 40 41 43 45 51 59 64 71 79 82 59 38 29 31 39 43 45 43 46 36 14 6 2 14 8 18 50 56 51 47 49 58 44 51 54 51 47 47 35 41 45 39 32
28 28 31 36 40 40 43 43 49 57 62 69 76 81 59 42 30 28 34 41 43 42 42 39 18 3 3 18 18 23 42 39 47 44 50 46 47 49 55 51 47 46 38 37 42 53 42
28 29 32 34 38 40 41 43 46 54 60 67 74 82 64 43 30 28 31 37 42 39 40 40 19 3 4 13 23 28 37 30 28 47 51 33 49 45 52 51 45 42 39 35 42 41 48
27 29 31 33 34 40 39 40 45 50 57 65 72 79 70 43 30 27 29 32 38 38 38 37 19 2 10 11 26 43 35 29 34 45 46 35 41 38 44 45 43 41 35 37 37 37 40
25 27 30 31 31 36 33 36 42 47 55 63 70 77 72 42 31 27 25 27 33 35 36 35 20 3 10 10 27 41 36 29 32 38 49 38 33 37 39 38 41 39 34 31 35 36 34
24 26 28 28 29 32 30 34 38 45 52 60 67 75 75 44 30 24 22 24 30 34 34 33 19 7 4 11 26 39 40 32 40 38 45 50 32 32 32 37 39 36 34 30 31 38 35
24 23 24 25 26 26 30 34 36 42 50 57 64 72 73 51 32 23 19 21 26 32 30 32 18 13 4 10 29 37 34 30 32 35 41 47 40 30 26 29 33 32 34 31 29 33 37
21 21 18 20 22 26 27 30 34 40 49 54 61 70 74 51 33 22 16 19 23 28 24 27 18 15 7 13 32 41 34 29 31 34 33 21 35 31 31 35 35 30 31 33 29 31 32
19 15 16 21 19 21 24 28 31 38 46 51 58 68 77 62 32 21 14 15 17 23 28 25 16 16 12 17 34 42 39 28 31 34 25 28 28 30 33 37 36 32 31 34 33 31 29
14 10 17 20 22 20 22 27 30 35 43 48 56 65 75 63 40 19 12 11 14 18 23 22 12 16 22 16 29 40 37 28 29 28 23 29 28 26 31 32 31 34 32 32 32 28 26
15 16 18 20 22 16 22 26 29 32 39 47 54 63 73 68 46 17 10 7 10 12 18 19 13 15 16 21 21 28 30 25 29 26 25 26 26 24 28 30 33 35 31 29 26 24 21
18 17 16 20 19 18 21 25 28 31 36 44 52 61 69 69 54 22 8 6 5 6 11 16 14 15 18 14 17 18 22 30 19 21 20 25 23 26 27 30 35 33 28 27 26 23 24
16 13 13 18 22 20 20 24 27 30 35 42 49 58 65 66 55 26 6 5 3 1 6 10 13 9 10 11 12 18 26 29 20 24 20 23 20 22 23 26 25 26 27 28 28 29 28
14 12 12 11 15 14 20 23 26 30 33 39 48 56 63 65 53 32 5 5 6 4 2 4 8 11 12 14 10 14 26 24 25 24 20 19 19 21 19 20 21 22 24 26 29 30 30
14 9 10 11 11 13 18 22 24 29 31 36 44 53 61 62 58 35 11 5 8 6 2 1 3 7 6 8 12 12 23 21 24 22 21 19 20 22 23 24 25 25 23 27 29 33 36
16 10 10 12 12 14 15 20 24 27 30 35 42 49 58 61 60 35 13 6 9 8 5 3 3 4 9 9 12 16 15 21 22 22 20 22 21 21 23 23 25 24 23 27 30 34 34
21 14 13 12 10 12 14 20 24 27 30 33 38 46 53 58 57 39 16 7 9 13 10 7 6 5 8 10 11 13 16 18 20 21 20 20 21 22 24 26 26 27 26 29 32 34 38
23 18 14 12 10 11 16 20 23 27 30 31 36 43 50 53 55 38 21 3 11 12 15 12 10 9 9 10 11 12 13 15 18 20 21 21 22 25 29 28 26 24 23 26 27 25 25
22 18 15 11 10 10 13 17 22 27 29 29 34 39 47 51 51 42 23 15 10 14 14 15 13 13 12 12 12 11 11 12 15 18 19 19 21 22 23 25 25 22 22 23 26 25 27
21 18 16 10 11 10 12 17 24 26 27 29 31 36 42 46 47 44 32 16 2 16 17 15 14 15 15 14 14 13 11 12 13 14 16 18 20 21 20 21 20 17 18 18 18 20 25
36 22 18 12 13 12 14 21 24 25 26 27 29 32 38 41 43 40 34 17 9 11 16 16 17 16 15 15 14 13 12 12 13 14 16 17 16 17 17 18 17 16 17 18 18 22 23
31 24 21 14 11 12 16 24 25 25 22 24 26 30 34 35 39 38 34 23 10 1 16 16 16 17 17 16 15 15 14 14 12 12 14 16 17 16 15 15 15 16 18 19 19 20 21
31 31 26 15 12 13 17 24 25 25 20 21 24 26 30 32 33 35 32 25 16 7 8 19 18 18 19 18 17 16 14 13 12 11 10 12 14 14 15 14 17 18 17 17 20 20 19
34 31 29 20 17 15 22 24 17 23 18 18 20 23 27 30 30 35 32 27 20 7 5 15 21 21 20 20 19 16 14 13 13 14 13 13 13 15 15 15 17 16 17 17 17 18 16
31 32 29 27 25 23 27 26 14 20 18 16 16 21 24 27 29 31 28 26 21 12 5 11 18 22 23 22 20 20 17 15 16 16 18 19 18 17 17 17 18 17 18 19 19 20 19
Wind_Direction
321 328 338 337 337 339 344 348 355 352 350 350 351 354 354 344 347 349 350 353 354 355 4 359 327 277 254 239 228 203 200 201 201 207 201 205 202 201 206 204 207 215 209 202 203 211 214
325 332 338 339 339 341 344 348 353 352 351 351 352 352 355 346 346 347 350 353 355 357 0 2 324 301 291 241 216 202 197 206 188 200 204 195 200 202 205 206 211 213 213 222 219 201 211
328 334 338 341 340 342 342 349 356 353 352 352 349 350 354 347 344 348 352 353 355 356 359 0 332 300 298 256 205 199 191 203 201 190 202 193 200 201 203 205 208 215 217 220 217 219 219
324 326 334 340 340 343 343 352 355 354 353 352 349 350 356 348 342 349 353 354 356 356 359 0 344 331 303 195 168 196 182 180 195 194 195 193 198 203 205 205 208 214 219 214 216 212 205
318 312 321 330 336 339 344 350 355 354 354 351 350 351 357 348 343 346 352 354 355 356 359 1 355 324 320 187 136 179 182 192 203 189 193 198 199 200 206 205 208 212 212 215 217 221 207
315 316 316 320 328 335 345 348 353 355 355 352 350 349 354 351 343 340 349 355 356 357 357 4 2 355 157 190 182 174 184 185 201 186 194 199 200 202 201 206 205 211 215 217 214 222 218
312 317 321 321 325 329 340 346 351 354 354 350 350 347 357 351 344 340 345 354 357 359 357 3 9 78 127 189 158 157 149 158 193 191 193 195 202 204 201 207 204 212 212 216 217 224 228
312 317 320 323 327 332 334 344 355 353 355 351 351 348 354 352 344 341 347 353 357 1 359 3 16 109 145 155 156 150 144 161 182 188 188 189 196 200 201 206 206 211 211 217 217 219 229
316 318 321 323 327 334 334 348 356 355 353 354 353 350 352 355 343 341 351 354 356 3 1 3 16 68 182 144 170 157 152 160 182 183 183 183 188 196 202 205 210 210 214 220 219 218 220
315 318 323 326 327 335 336 351 354 352 353 357 353 350 352 353 343 344 348 356 358 5 5 2 19 64 139 176 166 166 171 158 174 183 186 187 170 182 206 206 211 213 215 220 223 219 225
312 319 325 324 322 340 347 351 352 353 355 356 354 350 355 356 347 339 344 356 1 8 13 3 20 41 104 165 166 162 167 166 173 180 181 191 195 201 200 204 208 211 214 216 225 226 226
308 315 321 325 325 320 340 347 349 354 356 355 356 350 355 360 349 337 343 357 4 16 23 11 30 31 59 145 163 150 143 152 160 167 172 194 191 194 204 209 210 206 213 216 223 226 224
304 312 319 327 331 333 343 341 345 353 354 356 356 350 352 0 349 338 332 355 2 22 26 18 47 42 91 125 160 164 137 130 157 170 177 183 181 188 195 198 200 203 209 214 223 228 226
294 295 323 325 325 327 337 341 346 354 354 356 355 350 352 0 352 338 320 349 0 16 28 28 58 72 92 107 160 169 170 161 147 135 157 178 187 190 192 194 200 204 211 216 224 229 230
282 277 302 320 318 326 335 343 347 353 353 356 356 351 352 357 356 340 322 333 353 15 29 38 51 89 108 105 120 171 184 157 164 150 156 175 178 188 195 199 202 208 212 218 223 233 234
279 282 291 308 321 321 326 336 345 350 347 349 357 354 351 354 358 342 323 304 342 12 33 37 58 118 99 101 130 156 190 181 160 164 154 175 185 193 188 199 207 212 213 223 227 234 233
275 279 283 292 305 319 326 333 343 350 347 347 355 356 354 352 357 346 324 273 272 332 37 39 53 113 133 134 126 153 180 180 167 178 172 175 191 191 192 203 206 211 219 227 230 230 231
264 279 273 283 305 315 320 326 340 348 350 352 358 357 356 351 358 357 331 266 245 243 304 54 64 73 130 145 139 147 180 165 169 175 170 182 192 187 196 195 201 206 214 220 224 227 234
253 269 277 284 306 320 318 323 339 345 350 349 358 0 356 350 357 2 336 234 223 218 229 209 95 107 125 134 160 164 175 165 168 174 184 190 193 201 209 209 211 217 226 234 241 242 240
239 260 278 282 307 311 319 327 338 345 346 350 358 2 355 351 352 7 355 222 211 207 211 233 209 153 141 154 164 154 163 185 199 200 210 219 214 213 212 214 226 229 235 236 239 240 242
241 258 276 280 299 313 324 337 339 346 344 351 357 3 360 350 354 4 3 220 206 211 218 211 212 200 176 166 171 192 197 199 205 213 223 225 222 221 224 232 244 248 251 257 262 262 260
244 250 258 266 288 301 338 345 342 347 347 351 355 3 0 354 352 4 11 302 214 206 212 212 211 214 208 200 185 188 196 209 220 222 226 228 232 237 242 248 246 245 253 257 259 262 259
246 239 249 253 283 307 332 347 345 348 354 355 358 360 2 358 353 357 13 8 215 213 208 212 217 219 224 216 212 211 208 212 218 222 226 232 238 242 245 247 248 252 252 254 254 255 259
240 243 248 258 282 310 324 334 338 341 345 353 355 357 1 1 356 356 10 14 295 210 216 214 221 221 224 230 226 227 239 241 236 235 231 232 235 242 245 250 254 256 262 266 262 258 256
236 251 251 259 268 306 314 323 331 337 349 350 354 357 1 6 4 359 10 15 16 209 216 218 216 223 224 227 234 239 247 253 251 248 246 243 243 243 243 245 251 255 251 254 256 259 266
233 248 252 255 277 303 314 325 338 338 354 352 353 358 6 16 12 1 7 10 5 332 212 218 221 225 225 222 228 233 240 250 256 260 257 252 250 253 248 247 256 253 251 250 255 260 265
231 247 248 251 271 300 308 318 333 336 351 349 351 2 12 18 22 8 3 10 8 2 224 215 222 225 225 225 228 232 238 246 255 258 260 251 246 245 250 259 260 254 249 256 254 262 270
229 237 246 250 265 287 306 313 306 323 344 340 352 5 16 20 25 18 5 13 16 1 320 222 224 228 229 229 229 234 238 243 249 255 258 255 248 250 255 259 262 260 256 255 262 271 267
222 233 248 258 263 285 301 312 309 321 329 337 356 6 15 21 29 26 13 11 15 16 331 236 232 233 233 231 230 231 231 235 246 255 262 264 261 256 256 261 263 267 266 263 262 264 268